Skip Page Navigation
NASA JPL Caltech
NASA Logo - Jet Propulsion Laboratory + View the NASA Portal
+ Center for Near-Earth Object Studies
JPL Home Earth Solar System Stars & Galaxies Technology
JPL Solar System Dynamics
BODIES ORBITS EPHEMERIDES TOOLS PHYSICAL DATA DISCOVERY FAQ SITE MAP
JPL Small-Body Database Browser
Search: [ help ]  
469558 (2003 UY132)
Classification: Main-belt Asteroid          SPK-ID: 2469558
Ephemeris | Orbit Diagram | Orbital Elements | Mission Design | Physical Parameters | Discovery Circumstances | Close-Approach Data ]

[ show orbit diagram ]
Orbital Elements at Epoch 2459200.5 (2020-Dec-17.0) TDB
Reference: JPL 10 (heliocentric ecliptic J2000)
 Element Value Uncertainty (1-sigma)   Units 
e .2593198390391396 6.5043e-08  
a 2.706587544836348 2.4924e-08 au
q 2.004715698364047 1.8099e-07 au
i 9.030650280644791 6.1992e-06 deg
node 247.208889980473 4.9885e-05 deg
peri 182.7065587913621 5.6358e-05 deg
M 293.5742988605525 3.1113e-05 deg
tp 2459500.599444635912
(2021-Oct-13.09944464)
0.0001442 TDB
period 1626.415652612061
4.45
2.2465e-05
6.151e-08
d
yr
n .2213456316789817 3.0574e-09 deg/d
Q 3.40845939130865 3.1387e-08 au
  Orbit Determination Parameters
   # obs. used (total)      181  
   data-arc span      6148 days (16.83 yr)  
   first obs. used      2003-10-18  
   last obs. used      2020-08-17  
   planetary ephem.      DE431  
   SB-pert. ephem.      SB431-N16  
   condition code      0  
   norm. resid. RMS      .57941  
   source      ORB  
   producer      Otto Matic  
   solution date      2020-Nov-12 04:19:40  

Additional Information
 Earth MOID = 1.01858 au 
 Jupiter MOID = 1.90816 au 
 T_jup = 3.298 
[ hide covariance matrix ]
Orbital Elements at Epoch 2457801.5 (2017-Feb-17.0) TDB
Reference: JPL 10 (heliocentric ecliptic J2000)
 Element Value Uncertainty (1-sigma)   Units 
e .2625307724077577 6.5705e-08  
q 1.994155945505643 1.8403e-07 au
tp 2457868.899146967429
(2017-Apr-25.39914697)
0.00011984 TDB
node 247.3611331470733 4.9633e-05 deg
peri 181.6939712959926 5.5827e-05 deg
i 9.059513201964824 6.2119e-06 deg
  Orbit Determination Parameters
   # obs. used (total)      181  
   data-arc span      6148 days (16.83 yr)  
   first obs. used      2003-10-18  
   last obs. used      2020-08-17  
   planetary ephem.      DE431  
   SB-pert. ephem.      SB431-N16  
   condition code      0  
   norm. resid. RMS      .57941  
   source      ORB  
   producer      Otto Matic  
   solution date      2020-Nov-12 04:19:40  

Additional Information
 Jupiter MOID = 1.90816 au 
 T_jup = 3.298 
Orbit Covariance (6×6)
  e q tp node peri i
e 4.317139442359617E-15 -1.203011595386571E-14 -1.604282284930682E-12 -3.446216506848907E-14 -5.432043892926819E-14 -1.12155100230449E-15
q -1.203011595386571E-14 3.386682281852333E-14 6.34839063810189E-12 9.541865277815928E-14 5.530687702107928E-13 8.980777104390699E-15
tp -1.604282284930682E-12 6.34839063810189E-12 1.43619028542603E-8 -2.737524690887653E-11 3.097011371194865E-9 3.896707816065849E-11
node -3.446216506848907E-14 9.541865277815928E-14 -2.737524690887653E-11 2.463390632211656E-9 -2.440490410196068E-9 4.893742147007107E-11
peri -5.432043892926819E-14 5.530687702107928E-13 3.097011371194865E-9 -2.440490410196068E-9 3.116668091118409E-9 -3.9779818540003E-11
i -1.12155100230449E-15 8.980777104390699E-15 3.896707816065849E-11 4.893742147007107E-11 -3.9779818540003E-11 3.8587951960904E-11

Ephemeris | Orbit Diagram | Orbital Elements | Mission Design | Physical Parameters | Discovery Circumstances | Close-Approach Data ]

Physical Parameter Table
Parameter Symbol Value Units Sigma Reference Notes
absolute magnitude H 16.66   n/a E2021B25  

469558 (2003 UY132)          Discovered 2003-Oct-18 by LONEOS at Anderson Mesa
Reference: Last Updated: 2016-08-22

[ hide close-approach data ]
Close-Approach Data   ...sorted by Date/Time (TDB)
Date/Time (TDB) Time Uncertainty
(days_HH:MM)
Body Nominal Distance (au) Minimum Distance (au) Maximum Distance (au) V-relative (km/s) V-infinity (km/s) JD (TDB) Time Uncertainty (minutes) Semi-major axis (km) Semi-minor axis (km) range-LOV angle (deg) N-sigma BP Orbit Ref. Reference Modified
1913-Feb-27 02:45 00:04 Jupiter 1.94350863889129 1.94350669534139 1.94351058244096 2.57434107253107 2.3990809285844 2419825.614413920 4.3529632248761 231.728927900731 95.9519872235195 87.0731443183683 1433465.56470143 T 10 CATAB v2.0f-lin.ifort 2020-Nov-12 04:19:41 2020-Nov-12 04:19
1948-Sep-28 21:20 00:03 Jupiter 1.94128434120974 1.94128285406433 1.94128582835537 2.56347491090221 2.3872080442399 2432823.388585648 2.87835117356714 226.596640230651 70.6046122092377 83.5333137557845 1482025.50810095 T 10 CATAB v2.0f-lin.ifort 2020-Nov-12 04:19:41 2020-Nov-12 04:19
1984-May-05 07:08 00:01 Jupiter 1.94567292785629 1.94567177557648 1.94567408013754 2.55358206037266 2.376995638145 2445825.796936611 1.469106059157 229.247340300205 47.552959954502 81.3938816951871 1487499.35353222 T 10 CATAB v2.0f-lin.ifort 2020-Nov-12 04:19:41 2020-Nov-12 04:19
2019-Dec-13 23:05 < 00:01 Jupiter 1.93997694384144 1.9399760666765 1.93997782100947 2.53144068477648 2.35265009597265 2458831.461835324 0.326169728794148 240.837631049591 31.6359871865147 81.9461996999394 1482317.05668855 T 10 CATAB v2.0f-lin.ifort 2020-Nov-12 04:19:41 2020-Nov-12 04:19
2055-Jul-27 10:03 00:01 Jupiter 1.94884967943237 1.94884893712729 1.94885042174001 2.52116684764537 2.34244070406096 2471840.918813152 1.40316542327874 249.062429170244 32.8563216095852 83.8488738512247 1477660.56611192 T 10 CATAB v2.0f-lin.ifort 2020-Nov-12 04:19:41 2020-Nov-12 04:19
2091-Mar-14 02:28 00:03 Jupiter 1.94736317522402 1.94736232701004 1.94736402343866 2.493631958754 2.31263550653711 2484854.602673144 2.79971817724718 258.075032198165 49.0766282636354 85.824950777215 1460579.83611004 T 10 CATAB v2.0f-lin.ifort 2020-Nov-12 04:19:41 2020-Nov-12 04:19
2126-Nov-02 22:15 00:04 Jupiter 1.95403083930487 1.95402966567867 1.95403201293129 2.47331817607569 2.29136505732792 2497871.427229094 4.24857989048382 254.936613951272 71.0464315700005 86.2274950382358 1455455.70861921 T 10 CATAB v2.0f-lin.ifort 2020-Nov-12 04:19:41 2020-Nov-12 04:19
2162-Jun-29 18:26 00:06 Jupiter 1.96703345687592 1.96703170947851 1.96703520427488 2.44778045188707 2.2650410440456 2510894.267845477 5.75596324904255 262.842063934621 93.616455271407 78.9678735036778 1462372.45855934 T 10 CATAB v2.0f-lin.ifort 2020-Nov-12 04:19:41 2020-Nov-12 04:19
2198-Feb-26 18:40 00:07 Jupiter 1.9737856438292 1.97378326053242 1.97378802713473 2.4141297799255 2.22929373435541 2523920.277805095 7.31351504520827 337.145656191283 92.6684864963677 71.0135461517797 1413230.67821221 T 10 CATAB v2.0f-lin.ifort 2020-Nov-12 04:19:41 2020-Nov-12 04:19
Ephemeris | Orbit Diagram | Orbital Elements | Mission Design | Physical Parameters | Discovery Circumstances | Close-Approach Data ]
ABOUT SSD CREDITS/AWARDS PRIVACY/COPYRIGHT GLOSSARY LINKS
FirstGov 2021-Mar-07 22:37 UT
(server date/time)  
NASA Home Page
Site Manager:   Ryan S. Park
Webmaster  Alan B. Chamberlin